Weather History for Mobile, AL

Change the Weather History Date:

Monday, September 15, 2014

  Actual Average Record
Temperature  
Mean Temperature 81 °F 78 °F  
Max Temperature 89 °F 87 °F 97 °F (1972)
Min Temperature 73 °F 69 °F 54 °F (1985)
Degree Days  
Heating Degree Days 0 0  
Month to date heating degree days 0 0  
Since 1 July heating degree days 0 0  
Cooling Degree Days 16 13  
Month to date cooling degree days 248 216  
Year to date cooling degree days 1996 2143  
Growing Degree Days 31 (Base 50)    
Moisture  
Dew Point 75 °F    
Average Humidity 82    
Maximum Humidity 100    
Minimum Humidity 63    
Precipitation  
Precipitation 0.00 in 0.18 in 3.88 in (1913)
Month to date precipitation 3.00 2.63  
Year to date precipitation 60.40 49.79  
Sea Level Pressure  
Sea Level Pressure 30.09 in    
Wind  
Wind Speed 4 mph (ESE)    
Max Wind Speed 10 mph    
Max Gust Speed 13 mph    
Visibility 10 miles    
Events Thunderstorm    
T = Trace of Precipitation, MM = Missing Value Source: NWS Daily Summary

Daily Weather History Graph

Daily Weather History Graph

Search for Another Location

Airport:

Trip Planner

Search our weather history database for the weather conditions in past years. The results will help you decide how hot, cold, wet, or windy it might be!

Date:

Astronomy

Sep. 15, 2014 Rise Set
Actual Time 6:37 AM CDT 6:58 PM CDT
Civil Twilight 6:13 AM CDT 7:22 PM CDT
Nautical Twilight 5:44 AM CDT 7:50 PM CDT
Astronomical Twilight 5:16 AM CDT 8:19 PM CDT
Moon No Moon Rise 1:13 PM CDT (9/15)
Length of Visible Light 13h 09m
Length of Day
12h 21m
Waning Gibbous, 54% of the Moon is Illuminated
Sep 15
Waning Gibbous
Sep 15
Last Quarter
Sep 24
New
Oct 1
First Quarter
Oct 8
Full

Hourly Weather History & Observations

Time (CDT) Temp. Heat Index Dew Point Humidity Pressure Visibility Wind Dir Wind Speed Gust Speed Precip Events Conditions
12:56 AM 73.9 °F - 73.9 °F 100% 30.09 in 10.0 mi NNE 3.5 mph - N/A   Partly Cloudy
1:56 AM 73.9 °F - 73.9 °F 100% 30.09 in 10.0 mi Calm Calm - N/A   Clear
2:56 AM 73.4 °F - 73.4 °F 100% 30.09 in 10.0 mi Calm Calm - N/A   Clear
3:56 AM 73.0 °F - 73.0 °F 100% 30.08 in 10.0 mi NNE 4.6 mph - N/A   Clear
4:56 AM 73.0 °F - 73.0 °F 100% 30.09 in 10.0 mi Calm Calm - N/A   Clear
5:56 AM 73.0 °F - 73.0 °F 100% 30.09 in 10.0 mi Calm Calm - N/A   Partly Cloudy
6:56 AM 73.0 °F - 73.0 °F 100% 30.10 in 7.0 mi NE 3.5 mph - N/A   Scattered Clouds
7:56 AM 75.9 °F - 75.9 °F 100% 30.11 in 10.0 mi ENE 3.5 mph - N/A   Scattered Clouds
8:56 AM 80.1 °F 85.8 °F 77.0 °F 90% 30.12 in 10.0 mi ENE 4.6 mph - N/A   Scattered Clouds
9:56 AM 84.0 °F 93.7 °F 77.0 °F 79% 30.12 in 10.0 mi East 6.9 mph - N/A   Mostly Cloudy
10:56 AM 84.0 °F 91.2 °F 73.9 °F 72% 30.12 in 10.0 mi East 6.9 mph - N/A   Mostly Cloudy
11:56 AM 87.1 °F 95.4 °F 73.9 °F 65% 30.11 in 10.0 mi Variable 3.5 mph - N/A   Mostly Cloudy
12:56 PM 88.0 °F 95.6 °F 73.0 °F 61% 30.09 in 10.0 mi Variable 4.6 mph - N/A   Mostly Cloudy
1:48 PM 87.1 °F 93.6 °F 72.0 °F 61% 30.09 in 10.0 mi South 4.6 mph - N/A Thunderstorm Mostly Cloudy
1:56 PM 86.0 °F 93.0 °F 73.0 °F 65% 30.08 in 10.0 mi South 8.1 mph - N/A Thunderstorm Mostly Cloudy
2:13 PM 82.9 °F 90.8 °F 75.9 °F 79% 30.08 in 10.0 mi South 5.8 mph - N/A   Mostly Cloudy
2:56 PM 84.0 °F 92.6 °F 75.9 °F 76% 30.06 in 10.0 mi South 5.8 mph - N/A   Mostly Cloudy
3:56 PM 87.1 °F 98.8 °F 77.0 °F 72% 30.05 in 10.0 mi South 8.1 mph - N/A   Scattered Clouds
4:56 PM 84.9 °F 94.1 °F 75.9 °F 74% 30.06 in 10.0 mi South 4.6 mph - N/A   Scattered Clouds
5:56 PM 84.0 °F 92.6 °F 75.9 °F 76% 30.06 in 10.0 mi SSE 6.9 mph - N/A   Scattered Clouds
6:56 PM 81.0 °F 86.7 °F 75.0 °F 82% 30.06 in 10.0 mi SSE 5.8 mph - N/A   Scattered Clouds
7:56 PM 78.1 °F - 75.9 °F 93% 30.07 in 10.0 mi South 5.8 mph - N/A   Scattered Clouds
8:56 PM 78.1 °F - 75.9 °F 93% 30.09 in 10.0 mi Calm Calm - N/A   Scattered Clouds
9:56 PM 77.0 °F - 75.9 °F 96% 30.09 in 10.0 mi Calm Calm - N/A   Scattered Clouds
10:56 PM 78.1 °F - 75.9 °F 93% 30.09 in 10.0 mi NE 3.5 mph - N/A   Partly Cloudy
11:56 PM 77.0 °F - 75.9 °F 96% 30.08 in 10.0 mi Calm Calm - N/A   Clear